Temperature
21 22 21 21 22 22 22 22 22 22 21 21 21 21 21 20 20 20 20 20 20 20 20 20 20 20 20 20 20 19 19 19 19 19 18 18 18 18 18 18 18 18 18
23 22 22 22 22 22 22 22 22 22 21 21 21 21 21 21 20 20 20 20 20 20 20 20 20 20 20 20 20 20 20 20 19 19 19 19 19 19 18 18 18 18 18
23 22 22 22 22 22 22 22 22 22 21 21 21 21 21 21 21 20 20 20 20 20 20 20 20 20 20 20 20 20 20 20 20 19 19 19 19 19 19 19 18 18 18
24 23 22 22 22 22 21 21 21 21 21 21 21 21 21 21 21 21 21 21 21 21 21 21 21 21 21 21 20 20 20 20 19 19 19 19 19 19 19 19 19 19 18
24 23 22 22 22 22 21 21 21 21 21 21 21 21 21 21 21 21 21 21 21 21 21 21 21 21 21 21 20 20 20 20 19 19 19 19 18 18 19 19 19 19 19
24 23 22 22 22 22 21 21 21 21 21 21 21 21 21 21 21 21 20 20 20 20 20 20 20 20 20 20 20 20 20 20 19 19 19 19 19 18 18 19 19 19 19
24 23 23 22 22 22 21 21 21 21 21 21 21 21 21 21 20 20 20 20 20 20 20 20 20 20 20 20 20 20 20 20 19 19 18 18 18 18 18 18 19 19 19
25 24 23 22 22 22 21 21 21 21 21 21 21 21 20 20 20 20 20 20 20 20 20 20 20 20 20 20 20 20 20 19 19 19 19 18 18 18 18 18 18 19 19
25 24 23 23 22 22 22 21 21 21 21 21 21 21 21 20 20 20 20 20 20 20 20 20 20 20 20 20 20 20 19 19 19 19 19 18 18 18 18 18 18 18 19
25 25 24 23 23 22 22 21 21 21 21 21 21 21 20 20 20 20 20 19 19 19 19 19 19 20 20 20 19 19 19 19 19 19 19 19 19 18 18 18 18 18 18
25 24 24 24 23 23 22 22 21 21 21 21 21 21 20 20 20 20 19 19 19 19 19 19 19 19 19 19 19 19 19 19 19 19 19 19 19 18 18 18 18 18 18
24 24 24 24 23 23 22 22 21 21 21 21 21 20 20 20 20 20 19 19 19 19 19 19 19 18 19 19 19 19 19 19 19 19 19 19 19 19 18 18 18 18 18
24 24 24 24 23 23 22 22 21 21 21 20 20 20 20 19 19 19 19 19 18 18 18 18 18 18 18 18 18 18 18 18 19 19 19 19 19 19 18 18 18 18 18
23 23 23 22 22 22 22 21 21 21 21 20 20 20 19 19 19 19 19 18 18 18 18 18 18 18 18 18 18 18 18 18 18 18 19 19 19 19 18 18 18 18 18
23 22 22 22 21 21 21 20 20 20 20 20 20 20 19 19 19 19 18 18 18 18 18 18 18 18 18 18 18 18 18 18 18 18 18 18 18 18 18 18 18 18 18
22 21 21 20 20 20 19 19 19 20 20 20 19 19 19 19 19 18 18 18 18 18 18 18 17 17 17 17 17 17 17 17 17 17 18 18 18 18 18 18 18 18 18
21 21 20 19 19 19 18 18 19 19 19 19 19 19 19 19 19 19 19 18 18 18 18 17 17 17 17 17 17 17 17 17 17 17 17 18 18 18 18 18 18 18 18
21 20 19 18 18 19 18 18 18 19 19 19 19 19 19 19 19 19 19 18 18 18 17 17 17 17 17 17 17 17 17 17 17 17 17 18 18 18 18 18 18 18 18
21 20 19 19 18 18 18 18 18 18 19 19 19 19 19 19 19 19 19 19 18 18 17 17 17 17 17 17 17 17 17 18 18 18 18 18 18 18 18 18 18 18 18
20 20 20 19 18 17 18 18 18 18 18 18 19 19 19 19 19 19 19 19 18 18 18 17 17 17 17 17 17 17 17 18 18 18 18 18 18 18 18 18 18 18 18
20 19 19 18 18 17 17 17 17 18 18 18 19 19 19 19 20 19 19 19 19 18 18 18 17 17 17 17 17 17 18 18 18 18 17 17 17 17 17 17 17 17 18
19 18 19 18 17 17 17 17 17 18 18 19 19 19 19 19 19 19 19 19 19 19 18 18 17 17 17 16 16 16 16 17 17 17 17 17 17 17 17 17 17 18 18
18 18 18 17 17 17 17 17 17 18 18 18 19 18 19 19 19 19 19 19 19 19 18 18 18 17 17 16 16 15 15 14 15 17 17 17 17 17 17 17 17 18 18
17 17 17 17 17 17 17 17 17 18 18 18 18 18 18 18 18 18 18 18 18 18 18 18 18 17 17 17 16 15 15 14 14 14 16 17 17 17 17 17 17 18 18
16 16 16 16 16 16 16 17 17 17 17 17 17 17 17 17 17 17 17 17 17 17 17 17 17 17 17 16 16 16 15 15 14 14 14 16 16 16 16 16 17 17 17
16 16 16 16 16 16 16 16 16 16 16 16 16 17 16 16 16 16 16 16 17 17 17 17 17 17 16 16 16 16 15 15 15 14 13 14 15 16 16 16 16 16 17
Wind_Speed
11 15 21 20 21 20 19 19 18 18 17 17 17 17 18 18 18 19 19 18 17 16 15 14 13 13 13 13 13 14 14 14 15 15 16 16 15 14 13 15 14 14 16
17 18 23 22 22 21 20 19 19 18 18 17 17 17 17 17 17 17 17 17 16 16 15 14 13 13 13 13 13 13 13 13 13 13 14 14 14 12 12 14 13 13 15
19 18 22 23 22 22 21 20 19 19 18 18 17 17 16 16 16 16 16 16 15 15 14 13 12 12 12 12 12 12 12 11 11 12 12 10 11 12 13 16 15 14 14
19 18 21 24 23 22 21 20 20 19 18 18 17 17 16 16 15 15 15 15 14 14 13 13 12 11 11 11 10 10 10 10 10 10 10 9 9 12 15 17 15 14 13
15 16 21 25 24 23 22 21 20 19 18 18 17 16 16 15 15 15 14 14 13 13 12 12 11 11 10 10 9 9 9 9 9 8 7 9 10 13 16 17 16 15 14
14 15 21 24 23 23 22 21 20 19 18 18 17 16 16 15 14 14 13 13 12 12 12 11 11 11 10 10 9 8 8 8 8 7 7 9 13 16 18 18 18 16 15
13 13 20 24 23 22 21 21 20 19 18 17 17 16 15 14 14 13 13 12 12 12 12 11 11 11 11 10 10 9 9 9 8 7 7 8 14 20 21 20 20 19 17
17 13 17 23 23 22 21 21 20 19 18 18 17 16 16 15 14 14 13 13 13 13 12 12 12 12 13 12 12 12 11 11 9 8 8 10 16 21 22 22 22 21 20
16 14 12 18 21 22 21 21 20 19 19 18 18 17 17 16 15 15 15 14 14 14 14 15 15 15 15 15 15 14 14 13 12 10 9 8 14 22 24 24 23 23 22
14 14 12 13 15 16 18 20 20 20 19 19 18 18 17 17 16 16 15 16 16 16 17 17 17 17 17 16 16 16 16 15 13 12 11 10 12 20 25 24 24 24 23
14 12 12 12 11 13 14 18 19 20 20 19 18 19 17 14 14 14 16 17 19 19 20 20 19 18 18 17 18 18 17 13 12 12 12 14 15 19 24 25 25 25 24
16 14 12 13 12 11 13 13 12 14 14 15 14 15 14 13 13 14 15 19 21 22 22 22 21 19 18 14 15 18 13 13 12 12 14 17 17 18 23 25 26 26 25
15 14 13 12 10 9 7 7 8 10 10 13 13 14 12 11 11 11 9 11 16 19 16 16 17 15 13 11 10 11 13 13 12 13 15 18 19 20 22 25 27 27 26
12 12 11 10 10 8 5 6 7 6 6 7 12 14 10 5 6 6 4 6 6 7 6 8 6 9 11 12 11 10 11 10 12 13 15 18 18 19 21 24 27 28 27
9 8 9 8 7 6 5 5 7 7 7 9 11 13 13 7 7 5 3 3 3 4 4 4 5 6 7 7 8 9 9 10 12 13 13 17 20 20 20 19 25 28 28
7 5 5 3 2 1 1 4 6 6 5 6 7 11 13 8 5 5 3 2 2 3 4 4 5 5 5 5 7 7 7 8 9 11 13 16 20 20 20 20 24 28 29
9 8 7 5 3 2 2 4 5 2 3 4 5 9 10 8 5 4 3 2 2 2 2 2 2 2 3 3 5 6 6 6 6 8 11 12 14 17 20 22 25 27 29
10 10 8 7 4 2 4 5 3 1 2 3 3 5 7 8 7 4 3 2 1 1 1 0 0 0 1 2 3 4 5 5 7 7 9 10 11 13 17 22 25 27 29
10 10 9 7 6 4 3 5 3 0 2 2 3 4 6 7 8 4 3 2 2 2 1 1 1 1 1 3 4 5 4 5 6 7 8 8 10 12 13 17 24 27 30
7 5 6 3 1 3 2 2 2 2 1 2 3 5 7 7 7 5 4 3 3 3 1 0 0 1 1 2 4 4 5 6 6 6 7 7 7 10 12 14 15 19 27
7 5 2 3 2 2 1 2 2 2 2 3 4 5 6 7 7 5 4 4 4 3 2 1 1 1 2 1 2 4 5 5 5 5 4 4 6 6 7 9 10 12 14
5 3 3 2 2 2 3 3 3 2 2 3 3 4 5 6 6 5 6 5 4 3 2 1 1 1 1 1 1 1 4 5 4 3 2 3 4 4 5 6 7 9 11
7 5 4 2 1 1 3 2 2 1 1 1 2 3 4 5 6 5 6 6 5 5 4 3 3 3 2 1 1 2 0 3 4 4 3 2 3 4 5 5 5 6 10
7 6 6 4 3 2 2 1 0 1 1 3 2 3 4 4 5 6 6 7 6 5 5 4 4 4 3 2 2 2 3 4 2 4 4 3 4 5 5 6 5 4 5
7 7 6 7 7 6 5 4 3 3 2 2 2 2 3 3 4 5 6 7 7 6 6 6 5 4 4 4 3 3 3 3 5 4 6 5 4 3 4 5 4 3 3
6 6 6 6 6 6 7 7 7 6 6 5 5 4 3 3 3 3 4 5 6 6 7 7 7 6 5 5 4 4 4 4 4 4 6 6 6 4 5 5 4 3 3
Wind_Direction
161 163 159 155 152 150 147 144 141 138 136 133 131 129 127 127 127 129 131 133 135 134 133 132 130 128 127 126 125 124 124 125 126 127 127 126 126 127 130 127 121 118 119
157 161 157 155 154 153 151 149 147 146 144 141 138 136 133 132 133 134 135 136 138 138 137 137 136 134 134 134 133 133 133 133 134 134 133 132 130 127 133 138 128 129 125
152 157 156 155 154 154 154 153 152 152 150 148 146 144 141 140 140 141 142 143 143 143 142 143 143 143 143 143 143 142 141 141 142 141 139 137 138 130 127 139 136 136 133
150 154 155 155 155 155 156 156 157 157 156 155 153 151 150 148 148 148 149 150 151 152 152 152 153 153 154 155 155 155 154 155 157 157 157 162 162 149 139 141 144 144 143
147 152 156 155 156 158 159 161 161 161 161 160 160 159 158 157 157 157 157 158 159 160 162 163 164 164 166 169 171 173 174 174 178 183 184 185 186 171 160 153 154 155 154
148 153 158 158 159 161 162 164 165 166 166 166 166 166 166 166 166 166 167 168 169 171 173 174 175 176 180 184 188 195 200 201 202 206 219 219 201 188 177 167 164 165 165
150 155 160 160 162 164 166 168 170 170 171 171 172 173 174 175 176 177 178 180 182 184 186 188 189 191 194 199 204 211 220 226 226 221 228 225 194 191 187 177 172 173 174
154 157 163 165 167 169 171 173 175 175 176 177 178 180 181 184 186 188 190 192 195 198 200 202 203 204 207 210 214 220 228 237 245 239 225 215 202 199 196 186 180 180 181
157 161 165 169 172 174 176 179 180 182 183 184 186 187 189 192 196 199 202 205 208 210 212 214 215 216 217 218 221 225 230 236 245 255 258 236 215 206 204 194 188 186 187
161 167 169 170 172 175 180 185 187 189 190 192 193 195 197 200 204 209 212 216 219 220 221 223 224 225 225 225 227 230 234 238 242 247 253 253 238 215 211 203 196 194 193
169 175 174 173 173 175 180 191 192 195 198 199 201 203 204 209 213 217 222 224 227 229 229 228 228 230 231 232 233 234 236 234 232 241 248 250 244 225 219 212 205 201 199
178 181 181 179 177 176 187 192 196 200 204 205 206 208 208 210 216 223 230 234 236 236 235 233 231 231 233 234 237 238 235 232 233 241 245 246 245 235 227 222 215 209 207
177 180 182 181 177 179 193 187 196 205 207 212 212 213 212 215 222 231 232 244 242 240 238 238 235 230 228 226 227 229 231 233 234 238 243 246 247 243 236 229 222 217 214
167 178 172 173 176 184 198 197 197 204 205 211 216 214 209 213 220 223 224 229 228 227 225 229 227 228 230 230 228 229 231 231 233 234 239 246 252 255 250 238 230 224 219
160 164 159 164 169 182 198 217 207 210 209 210 210 212 207 207 213 209 213 219 221 217 217 226 230 233 235 235 236 236 235 233 233 233 238 245 252 254 255 253 241 232 226
102 90 93 120 120 112 231 253 225 210 209 203 205 205 200 197 192 191 204 212 222 214 211 214 224 226 234 236 242 242 241 238 233 229 233 240 246 247 247 245 240 238 232
96 79 66 52 48 26 326 276 245 204 185 193 197 191 183 179 178 176 176 184 214 208 207 224 242 232 243 245 250 253 249 240 236 233 235 233 238 240 239 239 238 238 235
84 73 58 21 344 4 303 281 274 193 161 147 153 165 164 163 164 158 158 175 194 137 87 184 279 307 295 284 275 268 259 251 247 242 240 235 231 236 235 237 236 235 237
90 83 65 32 0 339 287 280 292 253 131 131 143 155 163 161 157 144 152 162 135 97 79 91 101 160 285 299 285 272 268 261 255 256 248 241 236 233 233 238 238 237 238
85 96 95 92 22 319 311 304 312 351 36 155 174 176 167 164 156 142 145 144 124 106 86 64 246 240 236 267 292 296 277 266 258 252 253 254 246 243 239 240 239 240 239
81 86 104 141 162 200 288 309 266 236 221 203 203 186 172 167 159 153 150 147 137 137 157 233 218 284 289 309 344 319 303 287 276 265 263 270 270 263 252 244 238 238 241
89 86 90 143 166 215 225 231 240 213 226 221 218 211 187 173 167 169 166 167 164 155 149 179 173 201 279 7 107 336 334 333 336 310 302 289 297 304 289 274 250 240 240
65 55 56 42 47 254 248 256 311 352 340 317 254 228 210 187 181 175 180 178 182 173 181 201 197 181 216 271 189 175 225 286 308 303 292 297 320 315 303 293 275 259 244
73 67 54 56 54 7 331 334 39 237 246 261 257 252 239 214 197 194 192 194 193 189 191 204 191 187 183 230 266 216 203 201 254 304 304 292 303 308 306 308 300 289 268
67 64 56 47 34 16 11 8 13 2 321 308 314 292 266 257 238 226 214 204 202 200 200 201 199 208 202 205 214 227 235 226 216 239 288 304 311 286 288 290 288 282 274
76 69 61 53 38 25 25 20 18 10 357 357 352 340 312 294 281 270 238 222 213 207 207 206 206 213 218 221 223 220 219 227 222 227 263 290 297 291 290 280 275 263 260
Height
1510 1514 1517 1519 1521 1522 1523 1524 1525 1526 1527 1528 1530 1531 1532 1533 1534 1536 1537 1538 1539 1540 1541 1542 1542 1543 1544 1544 1545 1546 1546 1547 1548 1548 1549 1549 1550 1550 1551 1551 1552 1552 1553
1507 1512 1516 1518 1520 1522 1523 1524 1525 1526 1527 1529 1530 1531 1532 1533 1534 1536 1537 1538 1539 1540 1541 1542 1543 1544 1544 1545 1546 1546 1547 1548 1548 1549 1550 1551 1551 1552 1552 1552 1553 1553 1554
1506 1510 1514 1517 1519 1521 1522 1523 1525 1526 1528 1529 1530 1531 1533 1534 1535 1536 1537 1538 1539 1540 1541 1542 1543 1544 1545 1546 1546 1547 1548 1549 1549 1550 1551 1552 1552 1553 1553 1554 1554 1554 1555
1506 1509 1513 1517 1519 1520 1522 1523 1525 1526 1528 1529 1530 1532 1533 1534 1535 1536 1537 1538 1539 1540 1541 1542 1543 1544 1545 1546 1547 1547 1548 1549 1550 1550 1551 1552 1553 1554 1554 1555 1555 1555 1556
1507 1510 1513 1516 1518 1520 1522 1523 1524 1526 1527 1529 1530 1532 1533 1534 1535 1536 1537 1538 1539 1540 1541 1542 1542 1543 1544 1545 1546 1547 1548 1549 1550 1550 1551 1551 1552 1554 1555 1555 1556 1556 1557
1507 1510 1513 1516 1518 1520 1522 1523 1524 1526 1527 1529 1530 1531 1533 1534 1535 1536 1537 1538 1539 1539 1540 1541 1542 1542 1543 1544 1545 1546 1547 1548 1549 1549 1550 1550 1551 1553 1554 1555 1556 1556 1557
1507 1510 1513 1516 1518 1520 1522 1523 1524 1526 1527 1529 1530 1531 1533 1534 1535 1536 1537 1537 1538 1539 1539 1540 1540 1541 1542 1543 1544 1545 1546 1547 1548 1548 1549 1549 1550 1552 1553 1555 1555 1556 1556
1508 1510 1513 1515 1518 1520 1522 1523 1525 1526 1527 1529 1530 1531 1532 1533 1534 1535 1536 1537 1537 1538 1538 1538 1539 1539 1540 1541 1541 1542 1543 1544 1545 1546 1547 1548 1549 1550 1551 1553 1554 1555 1556
1508 1510 1512 1514 1517 1519 1521 1523 1524 1526 1527 1528 1529 1530 1531 1532 1533 1534 1535 1535 1536 1536 1537 1537 1537 1537 1538 1538 1539 1540 1541 1542 1542 1544 1545 1545 1546 1548 1549 1551 1552 1553 1554
1508 1509 1511 1513 1516 1518 1520 1522 1523 1525 1526 1527 1528 1528 1529 1530 1531 1532 1533 1533 1534 1534 1535 1535 1535 1536 1536 1536 1537 1537 1538 1539 1539 1540 1542 1543 1544 1545 1546 1548 1550 1551 1551
1507 1508 1510 1512 1515 1517 1519 1521 1522 1523 1524 1525 1526 1527 1528 1528 1529 1529 1530 1531 1531 1532 1532 1532 1532 1533 1533 1533 1534 1534 1535 1535 1536 1537 1538 1540 1541 1542 1543 1545 1547 1548 1549
1503 1506 1509 1511 1513 1516 1518 1520 1521 1522 1523 1524 1525 1525 1526 1526 1527 1527 1528 1528 1528 1529 1529 1529 1529 1529 1530 1530 1530 1531 1531 1532 1533 1533 1534 1536 1537 1538 1539 1541 1543 1544 1545
1502 1505 1507 1511 1513 1515 1517 1519 1520 1520 1521 1522 1523 1524 1524 1525 1525 1525 1525 1525 1525 1525 1525 1526 1526 1526 1526 1527 1527 1527 1528 1529 1529 1530 1531 1532 1533 1534 1535 1537 1538 1540 1541
1500 1503 1507 1511 1513 1515 1517 1518 1518 1518 1519 1519 1521 1522 1522 1522 1522 1522 1522 1522 1522 1522 1522 1522 1522 1522 1523 1523 1523 1523 1524 1525 1525 1526 1527 1528 1529 1530 1531 1532 1533 1535 1536
1498 1502 1505 1509 1512 1514 1516 1517 1517 1516 1517 1518 1518 1519 1519 1519 1520 1520 1520 1520 1519 1519 1519 1519 1519 1519 1519 1519 1519 1519 1520 1520 1521 1522 1522 1523 1524 1525 1525 1526 1527 1529 1531
1499 1503 1506 1509 1511 1512 1514 1515 1514 1513 1514 1515 1516 1516 1517 1517 1518 1518 1517 1517 1516 1516 1515 1515 1515 1515 1515 1515 1515 1515 1515 1516 1516 1516 1517 1518 1518 1519 1520 1521 1522 1523 1525
1495 1499 1503 1506 1507 1507 1507 1507 1507 1508 1510 1512 1513 1514 1514 1515 1516 1516 1515 1514 1513 1512 1512 1512 1512 1511 1511 1510 1510 1510 1510 1510 1511 1511 1511 1512 1513 1514 1515 1516 1517 1518 1519
1495 1497 1501 1503 1502 1501 1503 1501 1502 1504 1506 1508 1509 1511 1512 1512 1514 1514 1512 1511 1510 1509 1509 1508 1508 1508 1507 1506 1506 1505 1505 1506 1506 1506 1506 1506 1507 1508 1509 1510 1511 1513 1514
1493 1495 1497 1497 1496 1499 1501 1499 1499 1500 1502 1504 1506 1507 1510 1511 1512 1511 1510 1509 1507 1506 1506 1505 1505 1505 1504 1503 1501 1501 1500 1500 1500 1500 1500 1501 1501 1502 1503 1504 1505 1507 1508
1493 1495 1495 1494 1493 1495 1493 1495 1497 1497 1500 1502 1505 1506 1508 1509 1510 1509 1508 1507 1505 1504 1503 1503 1502 1501 1500 1499 1497 1496 1495 1495 1495 1495 1496 1496 1496 1496 1497 1498 1499 1500 1502
1491 1492 1492 1491 1492 1492 1492 1494 1496 1498 1499 1501 1503 1505 1505 1507 1508 1507 1506 1505 1503 1502 1500 1500 1499 1498 1497 1496 1494 1492 1491 1490 1490 1490 1491 1491 1491 1491 1491 1492 1492 1494 1495
1490 1490 1489 1489 1490 1492 1494 1494 1495 1497 1498 1499 1501 1502 1503 1504 1504 1505 1504 1503 1501 1500 1498 1497 1497 1495 1494 1493 1491 1488 1486 1486 1486 1487 1487 1487 1487 1487 1487 1487 1487 1487 1488
1491 1491 1491 1491 1491 1492 1493 1494 1495 1497 1497 1497 1498 1499 1499 1500 1501 1501 1501 1500 1499 1498 1496 1495 1494 1493 1491 1490 1489 1488 1485 1483 1481 1480 1482 1482 1483 1483 1482 1482 1481 1481 1482
1492 1493 1494 1493 1493 1493 1494 1495 1496 1495 1496 1496 1496 1496 1496 1496 1497 1497 1497 1496 1495 1494 1493 1492 1491 1490 1488 1487 1486 1485 1484 1482 1480 1476 1476 1477 1478 1477 1477 1477 1476 1476 1476
1495 1495 1495 1495 1495 1495 1494 1494 1494 1494 1494 1494 1493 1492 1492 1492 1492 1492 1492 1491 1490 1490 1489 1489 1488 1487 1486 1484 1482 1482 1480 1479 1477 1476 1471 1470 1471 1472 1472 1471 1470 1470 1471
1498 1498 1498 1497 1497 1495 1494 1493 1492 1491 1491 1490 1489 1488 1487 1487 1487 1486 1485 1485 1484 1484 1484 1484 1483 1483 1482 1480 1479 1478 1476 1474 1473 1472 1469 1466 1465 1466 1466 1466 1465 1465 1465